This demonstration page uses our WeatherBlox Daily Observations layout. Learn more.

Left ArrowRight Arrow

39.12711, -84.51439

Hourly Observations for August 29, 2018

Temp ( °F °C ) Dew Point ( °F °C ) Humidity (%) Winds ( mph kmh ) Pressure ( in mb ) Visibility ( mi km ) Precip ( " mm )
12:53 am 00:53 Clear 75 23.9 74 23.3 96 96 N N/A 30.06 1018 9 14 N/A
1:53 am 01:53 Clear with Mist and Fog 72 22.2 72 22.2 100 100 SW 5 7 30.05 1018 6 10 N/A
2:53 am 02:53 Clear 74 23.3 73 22.8 97 97 N N/A 30.04 1017 8 13 N/A
3:53 am 03:53 Clear 74 23.3 72 22.2 94 94 N N/A 30.02 1017 9 14 N/A
4:53 am 04:53 Partly Cloudy 73 22.8 71 21.7 94 94 SSW 5 7 30.01 1016 9 14 N/A
5:53 am 05:53 Clear 72 22.2 71 21.7 97 97 SW 5 7 30.02 1017 8 13 N/A
6:53 am 06:53 Mostly Clear 72 22.2 71 21.7 97 97 N N/A 30.03 1017 10 16 N/A
7:53 am 07:53 Mostly Cloudy 73 22.8 72 22.2 96 96 N N/A 30.06 1018 10 16 N/A
8:53 am 08:53 Mostly Cloudy 76 24.4 73 22.8 91 91 S 5 7 30.06 1018 10 16 N/A
9:53 am 09:53 Mostly Cloudy 80 26.7 74 23.3 82 82 SSW 7 11 30.06 1018 10 16 N/A
10:53 am 10:53 Mostly Cloudy 83 28.3 74 23.3 74 74 SW 8 13 30.06 1018 10 16 N/A
11:53 am 11:53 Mostly Cloudy 84 28.9 73 22.8 70 70 W 18 30 30.06 1018 10 16 N/A
12:24 pm 12:24 Mostly Sunny 85 29.4 74 23.3 70 70 SW 10 17 30.03 1017 10 16 N/A
12:53 pm 12:53 Mostly Cloudy with Light Rain 80 26.7 76 24.4 87 87 SSW 13 20 30.03 1017 8 13 0.01 0.25
1:53 pm 13:53 Mostly Sunny 85 29.4 76 24.4 75 75 SSW 17 28 29.98 1015 10 16 0.01 0.25
2:53 pm 14:53 Mostly Sunny 85 29.4 73 22.8 68 68 SSW 14 22 29.97 1015 10 16 N/A
3:53 pm 15:53 Sunny 89 31.7 76 24.4 65 65 WSW 12 19 29.99 1016 10 16 N/A
4:42 pm 16:42 Partly Cloudy 87 30.6 75 23.9 67 67 WSW 13 20 29.97 1015 10 16 N/A
4:53 pm 16:53 Partly Cloudy with Nearby Thunderstorms 86 30 75 23.9 70 70 WSW 12 19 29.98 1015 10 16 N/A
5:02 pm 17:02 Mostly Cloudy with Thunderstorms 87 30.6 74 23.3 65 65 W 17 28 29.97 1015 10 16 N/A
5:11 pm 17:11 Mostly Cloudy with Thunderstorms 79 26.1 73 22.8 82 82 NNW 17 28 30.00 1016 3 5 0.09 2.29
5:21 pm 17:21 Mostly Cloudy with Thunderstorms 75 23.9 73 22.8 94 94 N 14 22 30.00 1016 3 5 0.17 4.32
5:53 pm 17:53 Mostly Cloudy with Thunderstorms 76 24.4 73 22.8 91 91 NE 6 9 30.01 1016 7 11 0.18 4.57
6:13 pm 18:13 Cloudy with Strong Thunderstorms 76 24.4 73 22.8 91 91 N 16 26 30.00 1016 1 2 0.22 5.59
6:26 pm 18:26 Windy with Storms Likely 76 24.4 73 22.8 91 91 WNW 20 31 30.00 1016 4 6 0.31 7.87
6:53 pm 18:53 Cloudy with Thunderstorms 75 23.9 72 22.2 90 90 W 8 13 30.01 1016 4 6 0.39 9.91
7:13 pm 19:13 Mostly Cloudy 76 24.4 73 22.8 91 91 W 5 7 30.00 1016 7 11 0.07 1.78
7:53 pm 19:53 Partly Cloudy 75 23.9 75 23.9 100 100 N N/A 30.02 1017 9 14 0.07 1.78
8:53 pm 20:53 Clear 74 23.3 74 23.3 100 100 N N/A 30.02 1017 7 11 N/A
9:53 pm 21:53 Mostly Clear with Mist and Fog 72 22.2 72 22.2 100 100 SE 3 6 30.06 1018 4 6 N/A
10:53 pm 22:53 Clear with Mist and Fog 73 22.8 73 22.8 100 100 N N/A 30.07 1018 4 6 N/A
11:17 pm 23:17 Mostly Clear with Mist and Fog 72 22.2 72 22.2 100 100 N N/A 30.06 1018 2 2 N/A
11:23 pm 23:23 Mostly Clear with Fog 71 21.7 71 21.7 100 100 N N/A 30.06 1018 1 1 N/A
11:40 pm 23:40 Mostly Cloudy with Mist and Fog 71 21.7 71 21.7 100 100 N N/A 30.06 1018 1 2 N/A
11:49 pm 23:49 Mostly Cloudy with Mist and Fog 72 22 72 22 100 100 N N/A 30.06 1018 1 1 N/A
11:53 pm 23:53 Clear with Fog 71 21.7 71 21.7 100 100 N N/A 30.09 1019 1 1 N/A

Powered by AerisWeather